Year,Month,Day,Hour,Minute,Value (Times are PST for temperature in C)
2016,05,25,00,00,14.80
2016,05,25,00,01,14.70
2016,05,25,00,02,14.70
2016,05,25,00,03,14.70
2016,05,25,00,04,14.70
2016,05,25,00,05,14.70
2016,05,25,00,06,14.70
2016,05,25,00,07,14.60
2016,05,25,00,08,14.60
2016,05,25,00,09,14.60
2016,05,25,00,10,14.60
2016,05,25,00,11,14.50
2016,05,25,00,12,14.50
2016,05,25,00,13,14.50
2016,05,25,00,14,14.40
2016,05,25,00,15,14.40
2016,05,25,00,16,14.40
2016,05,25,00,17,14.40
2016,05,25,00,18,14.40
2016,05,25,00,19,14.30
2016,05,25,00,20,14.30
2016,05,25,00,21,14.30
2016,05,25,00,22,14.30
2016,05,25,00,23,14.30
2016,05,25,00,24,14.30
2016,05,25,00,25,14.30
2016,05,25,00,26,14.20
2016,05,25,00,27,14.20
2016,05,25,00,28,14.20
2016,05,25,00,29,14.20
2016,05,25,00,30,14.20
2016,05,25,00,31,14.20
2016,05,25,00,32,14.20
2016,05,25,00,33,14.20
2016,05,25,00,34,14.20
2016,05,25,00,35,14.20
2016,05,25,00,36,14.10
2016,05,25,00,37,14.10
2016,05,25,00,38,14.10
2016,05,25,00,39,14.10
2016,05,25,00,40,14.10
2016,05,25,00,41,14.10
2016,05,25,00,42,14.10
2016,05,25,00,43,14.10
2016,05,25,00,44,14.10
2016,05,25,00,45,14.10
2016,05,25,00,46,14.00
2016,05,25,00,47,14.00
2016,05,25,00,48,14.00
2016,05,25,00,49,14.00
2016,05,25,00,50,14.00
2016,05,25,00,51,14.00
2016,05,25,00,52,14.00
2016,05,25,00,53,14.00
2016,05,25,00,54,13.90
2016,05,25,00,55,13.90
2016,05,25,00,56,13.90
2016,05,25,00,57,13.90
2016,05,25,00,58,13.90
2016,05,25,00,59,13.90
2016,05,25,01,00,13.90
2016,05,25,01,01,13.90
2016,05,25,01,02,13.90
2016,05,25,01,03,13.80
2016,05,25,01,04,13.80
2016,05,25,01,05,13.80
2016,05,25,01,06,13.80
2016,05,25,01,07,13.80
2016,05,25,01,08,13.80
2016,05,25,01,09,13.80
2016,05,25,01,10,13.80
2016,05,25,01,11,13.80
2016,05,25,01,12,13.80
2016,05,25,01,13,13.80
2016,05,25,01,14,13.80
2016,05,25,01,15,13.70
2016,05,25,01,16,13.70
2016,05,25,01,17,13.70
2016,05,25,01,18,13.70
2016,05,25,01,19,13.70
2016,05,25,01,20,13.70
2016,05,25,01,21,13.70
2016,05,25,01,22,13.70
2016,05,25,01,23,13.70
2016,05,25,01,24,13.70
2016,05,25,01,25,13.60
2016,05,25,01,26,13.60
2016,05,25,01,27,13.60
2016,05,25,01,28,13.60
2016,05,25,01,29,13.60
2016,05,25,01,30,13.60
2016,05,25,01,31,13.60
2016,05,25,01,32,13.60
2016,05,25,01,33,13.60
2016,05,25,01,34,13.60
2016,05,25,01,35,13.50
2016,05,25,01,36,13.50
2016,05,25,01,37,13.50
2016,05,25,01,38,13.50
2016,05,25,01,39,13.50
2016,05,25,01,40,13.40
2016,05,25,01,41,13.40
2016,05,25,01,42,13.40
2016,05,25,01,43,13.40
2016,05,25,01,44,13.40
2016,05,25,01,45,13.40
2016,05,25,01,46,13.40
2016,05,25,01,47,13.40
2016,05,25,01,48,13.30
2016,05,25,01,49,13.30
2016,05,25,01,50,13.30
2016,05,25,01,51,13.30
2016,05,25,01,52,13.30
2016,05,25,01,53,13.30
2016,05,25,01,54,13.30
2016,05,25,01,55,13.30
2016,05,25,01,56,13.30
2016,05,25,01,57,13.30
2016,05,25,01,58,13.30
2016,05,25,01,59,13.30
2016,05,25,02,00,13.30
2016,05,25,02,01,13.30
2016,05,25,02,02,13.30
2016,05,25,02,03,13.30
2016,05,25,02,04,13.30
2016,05,25,02,05,13.30
2016,05,25,02,06,13.20
2016,05,25,02,07,13.20
2016,05,25,02,08,13.20
2016,05,25,02,09,13.20
2016,05,25,02,10,13.20
2016,05,25,02,11,13.20
2016,05,25,02,12,13.20
2016,05,25,02,13,13.20
2016,05,25,02,14,13.20
2016,05,25,02,15,13.10
2016,05,25,02,16,13.10
2016,05,25,02,17,13.10
2016,05,25,02,18,13.10
2016,05,25,02,19,13.10
2016,05,25,02,20,13.10
2016,05,25,02,21,13.10
2016,05,25,02,22,13.10
2016,05,25,02,23,13.00
2016,05,25,02,24,13.00
2016,05,25,02,25,13.00
2016,05,25,02,26,13.00
2016,05,25,02,27,13.00
2016,05,25,02,28,12.90
2016,05,25,02,29,12.90
2016,05,25,02,30,12.90
2016,05,25,02,31,12.90
2016,05,25,02,32,12.90
2016,05,25,02,33,12.90
2016,05,25,02,34,12.90
2016,05,25,02,35,12.80
2016,05,25,02,36,12.80
2016,05,25,02,37,12.80
2016,05,25,02,38,12.80
2016,05,25,02,39,12.80
2016,05,25,02,40,12.80
2016,05,25,02,41,12.80
2016,05,25,02,42,12.70
2016,05,25,02,43,12.70
2016,05,25,02,44,12.70
2016,05,25,02,45,12.70
2016,05,25,02,46,12.70
2016,05,25,02,47,12.60
2016,05,25,02,48,12.60
2016,05,25,02,49,12.60
2016,05,25,02,50,12.60
2016,05,25,02,51,12.60
2016,05,25,02,52,12.50
2016,05,25,02,53,12.50
2016,05,25,02,54,12.50
2016,05,25,02,55,12.50
2016,05,25,02,56,12.50
2016,05,25,02,57,12.40
2016,05,25,02,58,12.40
2016,05,25,02,59,12.40
2016,05,25,03,00,12.40
2016,05,25,03,01,12.40
2016,05,25,03,02,12.40
2016,05,25,03,03,12.30
2016,05,25,03,04,12.30
2016,05,25,03,05,12.30
2016,05,25,03,06,12.30
2016,05,25,03,07,12.30
2016,05,25,03,08,12.30
2016,05,25,03,09,12.30
2016,05,25,03,10,12.30
2016,05,25,03,11,12.20
2016,05,25,03,12,12.20
2016,05,25,03,13,12.20
2016,05,25,03,14,12.20
2016,05,25,03,15,12.20
2016,05,25,03,16,12.20
2016,05,25,03,17,12.20
2016,05,25,03,18,12.20
2016,05,25,03,19,12.10
2016,05,25,03,20,12.10
2016,05,25,03,21,12.10
2016,05,25,03,22,12.10
2016,05,25,03,23,12.10
2016,05,25,03,24,12.10
2016,05,25,03,25,12.10
2016,05,25,03,26,12.10
2016,05,25,03,27,12.00
2016,05,25,03,28,12.00
2016,05,25,03,29,12.00
2016,05,25,03,30,12.00
2016,05,25,03,31,11.90
2016,05,25,03,32,11.90
2016,05,25,03,33,11.90
2016,05,25,03,34,11.90
2016,05,25,03,35,11.90
2016,05,25,03,36,11.90
2016,05,25,03,37,11.90
2016,05,25,03,38,11.90
2016,05,25,03,39,11.90
2016,05,25,03,40,11.90
2016,05,25,03,41,11.80
2016,05,25,03,42,11.80
2016,05,25,03,43,11.80
2016,05,25,03,44,11.80
2016,05,25,03,45,11.80
2016,05,25,03,46,11.80
2016,05,25,03,47,11.80
2016,05,25,03,48,11.80
2016,05,25,03,49,11.80
2016,05,25,03,50,11.80
2016,05,25,03,51,11.80
2016,05,25,03,52,11.80
2016,05,25,03,53,11.70
2016,05,25,03,54,11.70
2016,05,25,03,55,11.70
2016,05,25,03,56,11.70
2016,05,25,03,57,11.70
2016,05,25,03,58,11.70
2016,05,25,03,59,11.70
2016,05,25,04,00,11.60
2016,05,25,04,01,11.60
2016,05,25,04,02,11.60
2016,05,25,04,03,11.60
2016,05,25,04,04,11.60
2016,05,25,04,05,11.60
2016,05,25,04,06,11.50
2016,05,25,04,07,11.50
2016,05,25,04,08,11.50
2016,05,25,04,09,11.50
2016,05,25,04,10,11.50
2016,05,25,04,11,11.50
2016,05,25,04,12,11.40
2016,05,25,04,13,11.40
2016,05,25,04,14,11.40
2016,05,25,04,15,11.40
2016,05,25,04,16,11.40
2016,05,25,04,17,11.40
2016,05,25,04,18,11.40
2016,05,25,04,19,11.30
2016,05,25,04,20,11.30
2016,05,25,04,21,11.30
2016,05,25,04,22,11.30
2016,05,25,04,23,11.30
2016,05,25,04,24,11.30
2016,05,25,04,25,11.30
2016,05,25,04,26,11.20
2016,05,25,04,27,11.20
2016,05,25,04,28,11.20
2016,05,25,04,29,11.20
2016,05,25,04,30,11.20
2016,05,25,04,31,11.20
2016,05,25,04,32,11.20
2016,05,25,04,33,11.10
2016,05,25,04,34,11.10
2016,05,25,04,35,11.10
2016,05,25,04,36,11.10
2016,05,25,04,37,11.00
2016,05,25,04,38,11.00
2016,05,25,04,39,11.00
2016,05,25,04,40,10.90
2016,05,25,04,41,10.90
2016,05,25,04,42,10.90
2016,05,25,04,43,10.90
2016,05,25,04,44,10.90
2016,05,25,04,45,10.90
2016,05,25,04,46,10.80
2016,05,25,04,47,10.80
2016,05,25,04,48,10.80
2016,05,25,04,49,10.80
2016,05,25,04,50,10.80
2016,05,25,04,51,10.80
2016,05,25,04,52,10.80
2016,05,25,04,53,10.80
2016,05,25,04,54,10.80
2016,05,25,04,55,10.70
2016,05,25,04,56,10.70
2016,05,25,04,57,10.70
2016,05,25,04,58,10.70
2016,05,25,04,59,10.70
2016,05,25,05,00,10.60
2016,05,25,05,01,10.60
2016,05,25,05,02,10.60
2016,05,25,05,03,10.50
2016,05,25,05,04,10.50
2016,05,25,05,05,10.50
2016,05,25,05,06,10.40
2016,05,25,05,07,10.40
2016,05,25,05,08,10.40
2016,05,25,05,09,10.30
2016,05,25,05,10,10.30
2016,05,25,05,11,10.30
2016,05,25,05,12,10.30
2016,05,25,05,13,10.30
2016,05,25,05,14,10.30
2016,05,25,05,15,10.20
2016,05,25,05,16,10.20
2016,05,25,05,17,10.20
2016,05,25,05,18,10.20
2016,05,25,05,19,10.20
2016,05,25,05,20,10.20
2016,05,25,05,21,10.20
2016,05,25,05,22,10.20
2016,05,25,05,23,10.20
2016,05,25,05,24,10.20
2016,05,25,05,25,10.20
2016,05,25,05,26,10.20
2016,05,25,05,27,10.20
2016,05,25,05,28,10.20
2016,05,25,05,29,10.20
2016,05,25,05,30,10.20
2016,05,25,05,31,10.20
2016,05,25,05,32,10.20
2016,05,25,05,33,10.20
2016,05,25,05,34,10.20
2016,05,25,05,35,10.20
2016,05,25,05,36,10.20
2016,05,25,05,37,10.20
2016,05,25,05,38,10.20
2016,05,25,05,39,10.20
2016,05,25,05,40,10.20
2016,05,25,05,41,10.20
2016,05,25,05,42,10.20
2016,05,25,05,43,10.20
2016,05,25,05,44,10.20
2016,05,25,05,45,10.20
2016,05,25,05,46,10.20
2016,05,25,05,47,10.30
2016,05,25,05,48,10.30
2016,05,25,05,49,10.30
2016,05,25,05,50,10.30
2016,05,25,05,51,10.30
2016,05,25,05,52,10.30
2016,05,25,05,53,10.30
2016,05,25,05,54,10.40
2016,05,25,05,55,10.40
2016,05,25,05,56,10.40
2016,05,25,05,57,10.40
2016,05,25,05,58,10.40
2016,05,25,05,59,10.50
2016,05,25,06,00,10.50
2016,05,25,06,01,10.60
2016,05,25,06,02,10.60
2016,05,25,06,03,10.60
2016,05,25,06,04,10.60
2016,05,25,06,05,10.70
2016,05,25,06,06,10.70
2016,05,25,06,07,10.70
2016,05,25,06,08,10.70
2016,05,25,06,09,10.80
2016,05,25,06,10,10.80
2016,05,25,06,11,10.90
2016,05,25,06,12,10.90
2016,05,25,06,13,10.90
2016,05,25,06,14,11.00
2016,05,25,06,15,11.00
2016,05,25,06,16,11.10
2016,05,25,06,17,11.10
2016,05,25,06,18,11.10
2016,05,25,06,19,11.20
2016,05,25,06,20,11.20
2016,05,25,06,21,11.20
2016,05,25,06,22,11.20
2016,05,25,06,23,11.20
2016,05,25,06,24,11.20
2016,05,25,06,25,11.20
2016,05,25,06,26,11.20
2016,05,25,06,27,11.30
2016,05,25,06,28,11.30
2016,05,25,06,29,11.30
2016,05,25,06,30,11.30
2016,05,25,06,31,11.30
2016,05,25,06,32,11.40
2016,05,25,06,33,11.40
2016,05,25,06,34,11.40
2016,05,25,06,35,11.40
2016,05,25,06,36,11.40
2016,05,25,06,37,11.50
2016,05,25,06,38,11.50
2016,05,25,06,39,11.50
2016,05,25,06,40,11.60
2016,05,25,06,41,11.60
2016,05,25,06,42,11.60
2016,05,25,06,43,11.60
2016,05,25,06,44,11.60
2016,05,25,06,45,11.60
2016,05,25,06,46,11.60
2016,05,25,06,47,11.60
2016,05,25,06,48,11.70
2016,05,25,06,49,11.70
2016,05,25,06,50,11.70
2016,05,25,06,51,11.70
2016,05,25,06,52,11.70
2016,05,25,06,53,11.80
2016,05,25,06,54,11.80
2016,05,25,06,55,11.80
2016,05,25,06,56,11.90
2016,05,25,06,57,11.90
2016,05,25,06,58,11.90
2016,05,25,06,59,12.00
2016,05,25,07,00,12.00
2016,05,25,07,01,12.10
2016,05,25,07,02,12.20
2016,05,25,07,03,12.20
2016,05,25,07,04,12.20
2016,05,25,07,05,12.20
2016,05,25,07,06,12.30
2016,05,25,07,07,12.30
2016,05,25,07,08,12.30
2016,05,25,07,09,12.30
2016,05,25,07,10,12.40
2016,05,25,07,11,12.40
2016,05,25,07,12,12.40
2016,05,25,07,13,12.40
2016,05,25,07,14,12.40
2016,05,25,07,15,12.40
2016,05,25,07,16,12.50
2016,05,25,07,17,12.50
2016,05,25,07,18,12.50
2016,05,25,07,19,12.50
2016,05,25,07,20,12.50
2016,05,25,07,21,12.50
2016,05,25,07,22,12.50
2016,05,25,07,23,12.60
2016,05,25,07,24,12.60
2016,05,25,07,25,12.60
2016,05,25,07,26,12.60
2016,05,25,07,27,12.60
2016,05,25,07,28,12.60
2016,05,25,07,29,12.60
2016,05,25,07,30,12.70
2016,05,25,07,31,12.70
2016,05,25,07,32,12.80
2016,05,25,07,33,12.80
2016,05,25,07,34,12.80
2016,05,25,07,35,12.80
2016,05,25,07,36,12.70
2016,05,25,07,37,12.70
2016,05,25,07,38,12.70
2016,05,25,07,39,12.70
2016,05,25,07,40,12.80
2016,05,25,07,41,12.70
2016,05,25,07,42,12.70
2016,05,25,07,43,12.70
2016,05,25,07,44,12.70
2016,05,25,07,45,12.70
2016,05,25,07,46,12.70
2016,05,25,07,47,12.70
2016,05,25,07,48,12.70
2016,05,25,07,49,12.60
2016,05,25,07,50,12.60
2016,05,25,07,51,12.60
2016,05,25,07,52,12.50
2016,05,25,07,53,12.50
2016,05,25,07,54,12.50
2016,05,25,07,55,12.50
2016,05,25,07,56,12.40
2016,05,25,07,57,12.40
2016,05,25,07,58,12.40
2016,05,25,07,59,12.40
2016,05,25,08,00,12.40
2016,05,25,08,01,12.40
2016,05,25,08,02,12.40
2016,05,25,08,03,12.40
2016,05,25,08,04,12.40
2016,05,25,08,05,12.40
2016,05,25,08,06,12.50
2016,05,25,08,07,12.50
2016,05,25,08,08,12.50
2016,05,25,08,09,12.50
2016,05,25,08,10,12.60
2016,05,25,08,11,12.50
2016,05,25,08,12,12.50
2016,05,25,08,13,12.50
2016,05,25,08,14,12.40
2016,05,25,08,15,12.40
2016,05,25,08,16,12.40
2016,05,25,08,17,12.40
2016,05,25,08,18,12.40
2016,05,25,08,19,12.40
2016,05,25,08,20,12.40
2016,05,25,08,21,12.40
2016,05,25,08,22,12.40
2016,05,25,08,23,12.40
2016,05,25,08,24,12.40
2016,05,25,08,25,12.40
2016,05,25,08,26,12.40
2016,05,25,08,27,12.40
2016,05,25,08,28,12.40
2016,05,25,08,29,12.40
2016,05,25,08,30,12.40
2016,05,25,08,31,12.40
2016,05,25,08,32,12.30
2016,05,25,08,33,12.30
2016,05,25,08,34,12.30
2016,05,25,08,35,12.30
2016,05,25,08,36,12.30
2016,05,25,08,37,12.30
2016,05,25,08,38,12.30
2016,05,25,08,39,12.30
2016,05,25,08,40,12.30
2016,05,25,08,41,12.30
2016,05,25,08,42,12.30
2016,05,25,08,43,12.30
2016,05,25,08,44,12.30
2016,05,25,08,45,12.30
2016,05,25,08,46,12.30
2016,05,25,08,47,12.30
2016,05,25,08,48,12.30
2016,05,25,08,49,12.30
2016,05,25,08,50,12.30
2016,05,25,08,51,12.30
2016,05,25,08,52,12.30
2016,05,25,08,53,12.30
2016,05,25,08,54,12.30
2016,05,25,08,55,12.30
2016,05,25,08,56,12.40
2016,05,25,08,57,12.40
2016,05,25,08,58,12.40
2016,05,25,08,59,12.40
2016,05,25,09,00,12.40
2016,05,25,09,01,12.40
2016,05,25,09,02,12.40
2016,05,25,09,03,12.40
2016,05,25,09,04,12.40
2016,05,25,09,05,12.40
2016,05,25,09,06,12.40
2016,05,25,09,07,12.50
2016,05,25,09,08,12.50
2016,05,25,09,09,12.50
2016,05,25,09,10,12.60
2016,05,25,09,11,12.60
2016,05,25,09,12,12.70
2016,05,25,09,13,12.70
2016,05,25,09,14,12.70
2016,05,25,09,15,12.70
2016,05,25,09,16,12.80
2016,05,25,09,17,12.80
2016,05,25,09,18,12.80
2016,05,25,09,19,12.80
2016,05,25,09,20,12.80
2016,05,25,09,21,12.80
2016,05,25,09,22,12.70
2016,05,25,09,23,12.80
2016,05,25,09,24,12.80
2016,05,25,09,25,12.80
2016,05,25,09,26,12.80
2016,05,25,09,27,12.80
2016,05,25,09,28,12.80
2016,05,25,09,29,12.90
2016,05,25,09,30,12.90
2016,05,25,09,31,12.90
2016,05,25,09,32,12.90
2016,05,25,09,33,12.90
2016,05,25,09,34,12.90
2016,05,25,09,35,12.90
2016,05,25,09,36,12.90
2016,05,25,09,37,13.00
2016,05,25,09,38,13.00
2016,05,25,09,39,13.10
2016,05,25,09,40,13.10
2016,05,25,09,41,13.10
2016,05,25,09,42,13.10
2016,05,25,09,43,13.10
2016,05,25,09,44,13.20
2016,05,25,09,45,13.20
2016,05,25,09,46,13.20
2016,05,25,09,47,13.30
2016,05,25,09,48,13.30
2016,05,25,09,49,13.30
2016,05,25,09,50,13.30
2016,05,25,09,51,13.30
2016,05,25,09,52,13.40
2016,05,25,09,53,13.40
2016,05,25,09,54,13.40
2016,05,25,09,55,13.40
2016,05,25,09,56,13.40
2016,05,25,09,57,13.40
2016,05,25,09,58,13.40
2016,05,25,09,59,13.40
2016,05,25,10,00,13.40
2016,05,25,10,01,13.40
2016,05,25,10,02,13.40
2016,05,25,10,03,13.50
2016,05,25,10,04,13.60
2016,05,25,10,05,13.60
2016,05,25,10,06,13.60
2016,05,25,10,07,13.70
2016,05,25,10,08,13.70
2016,05,25,10,09,13.70
2016,05,25,10,10,13.70
2016,05,25,10,11,13.70
2016,05,25,10,12,13.70
2016,05,25,10,13,13.70
2016,05,25,10,14,13.80
2016,05,25,10,15,13.80
2016,05,25,10,16,13.80
2016,05,25,10,17,13.80
2016,05,25,10,18,13.90
2016,05,25,10,19,13.90
2016,05,25,10,20,14.00
2016,05,25,10,21,14.00
2016,05,25,10,22,14.10
2016,05,25,10,23,14.00
2016,05,25,10,24,14.00
2016,05,25,10,25,13.90
2016,05,25,10,26,14.00
2016,05,25,10,27,14.00
2016,05,25,10,28,14.10
2016,05,25,10,29,14.10
2016,05,25,10,30,14.10
2016,05,25,10,31,14.20
2016,05,25,10,32,14.20
2016,05,25,10,33,14.20
2016,05,25,10,34,14.20
2016,05,25,10,35,14.20
2016,05,25,10,36,14.20
2016,05,25,10,37,14.20
2016,05,25,10,38,14.20
2016,05,25,10,39,14.20
2016,05,25,10,40,14.20
2016,05,25,10,41,14.20
2016,05,25,10,42,14.20
2016,05,25,10,43,14.20
2016,05,25,10,44,14.30
2016,05,25,10,45,14.30
2016,05,25,10,46,14.30
2016,05,25,10,47,14.30
2016,05,25,10,48,14.30
2016,05,25,10,49,14.30
2016,05,25,10,50,14.30
2016,05,25,10,51,14.40
2016,05,25,10,52,14.40
2016,05,25,10,53,14.50
2016,05,25,10,54,14.60
2016,05,25,10,55,14.60
2016,05,25,10,56,14.70
2016,05,25,10,57,14.70
2016,05,25,10,58,14.80
2016,05,25,10,59,14.80
2016,05,25,11,00,14.80
2016,05,25,11,01,14.90
2016,05,25,11,02,15.00
2016,05,25,11,03,15.10
2016,05,25,11,04,15.10
2016,05,25,11,05,15.10
2016,05,25,11,06,15.20
2016,05,25,11,07,15.20
2016,05,25,11,08,15.20
2016,05,25,11,09,15.20
2016,05,25,11,10,15.20
2016,05,25,11,11,15.30
2016,05,25,11,12,15.30
2016,05,25,11,13,15.30
2016,05,25,11,14,15.30
2016,05,25,11,15,15.30
2016,05,25,11,16,15.40
2016,05,25,11,17,15.40
2016,05,25,11,18,15.50
2016,05,25,11,19,15.50
2016,05,25,11,20,15.50
2016,05,25,11,21,15.50
2016,05,25,11,22,15.60
2016,05,25,11,23,15.60
2016,05,25,11,24,15.60
2016,05,25,11,25,15.60
2016,05,25,11,26,15.60
2016,05,25,11,27,15.70
2016,05,25,11,28,15.70
2016,05,25,11,29,15.70
2016,05,25,11,30,15.70
2016,05,25,11,31,15.70
2016,05,25,11,32,15.80
2016,05,25,11,33,15.90
2016,05,25,11,34,16.00
2016,05,25,11,35,16.00
2016,05,25,11,36,16.10
2016,05,25,11,37,16.20
2016,05,25,11,38,16.20
2016,05,25,11,39,16.20
2016,05,25,11,40,16.20
2016,05,25,11,41,16.30
2016,05,25,11,42,16.30
2016,05,25,11,43,16.30
2016,05,25,11,44,16.30
2016,05,25,11,45,16.30
2016,05,25,11,46,16.40
2016,05,25,11,47,16.40
2016,05,25,11,48,16.40
2016,05,25,11,49,16.40
2016,05,25,11,50,16.40
2016,05,25,11,51,16.40
2016,05,25,11,52,16.40
2016,05,25,11,53,16.50
2016,05,25,11,54,16.50
2016,05,25,11,55,16.60
2016,05,25,11,56,16.70
2016,05,25,11,57,16.80
2016,05,25,11,58,16.90
2016,05,25,11,59,17.10
2016,05,25,12,00,17.30
2016,05,25,12,01,17.40
2016,05,25,12,02,17.50
2016,05,25,12,03,17.50
2016,05,25,12,04,17.50
2016,05,25,12,05,17.40
2016,05,25,12,06,17.40
2016,05,25,12,07,17.30
2016,05,25,12,08,17.30
2016,05,25,12,09,17.20
2016,05,25,12,10,17.20
2016,05,25,12,11,17.30
2016,05,25,12,12,17.30
2016,05,25,12,13,17.30
2016,05,25,12,14,17.40
2016,05,25,12,15,17.40
2016,05,25,12,16,17.50
2016,05,25,12,17,17.60
2016,05,25,12,18,17.60
2016,05,25,12,19,17.60
2016,05,25,12,20,17.60
2016,05,25,12,21,17.50
2016,05,25,12,22,17.40
2016,05,25,12,23,17.30
2016,05,25,12,24,17.40
2016,05,25,12,25,17.50
2016,05,25,12,26,17.70
2016,05,25,12,27,17.80
2016,05,25,12,28,17.80
2016,05,25,12,29,17.80
2016,05,25,12,30,17.90
2016,05,25,12,31,17.90
2016,05,25,12,32,18.00
2016,05,25,12,33,18.10
2016,05,25,12,34,18.20
2016,05,25,12,35,18.20
2016,05,25,12,36,18.30
2016,05,25,12,37,18.30
2016,05,25,12,38,18.30
2016,05,25,12,39,18.30
2016,05,25,12,40,18.30
2016,05,25,12,41,18.30
2016,05,25,12,42,18.30
2016,05,25,12,43,18.40
2016,05,25,12,44,18.50
2016,05,25,12,45,18.50
2016,05,25,12,46,18.50
2016,05,25,12,47,18.50
2016,05,25,12,48,18.60
2016,05,25,12,49,18.60
2016,05,25,12,50,18.70
2016,05,25,12,51,18.70
2016,05,25,12,52,18.80
2016,05,25,12,53,18.90
2016,05,25,12,54,18.90
2016,05,25,12,55,18.90
2016,05,25,12,56,18.80
2016,05,25,12,57,18.80
2016,05,25,12,58,18.80
2016,05,25,12,59,18.80
2016,05,25,13,00,18.80
2016,05,25,13,01,18.80
2016,05,25,13,02,18.80
2016,05,25,13,03,18.90
2016,05,25,13,04,18.90
2016,05,25,13,05,18.90
2016,05,25,13,06,19.00
2016,05,25,13,07,19.00
2016,05,25,13,08,19.00
2016,05,25,13,09,19.00
2016,05,25,13,10,19.00
2016,05,25,13,11,19.00
2016,05,25,13,12,19.10
2016,05,25,13,13,19.10
2016,05,25,13,14,19.10
2016,05,25,13,15,19.20
2016,05,25,13,16,19.10
2016,05,25,13,17,19.10
2016,05,25,13,18,19.10
2016,05,25,13,19,19.20
2016,05,25,13,20,19.20
2016,05,25,13,21,19.20
2016,05,25,13,22,19.20
2016,05,25,13,23,19.20
2016,05,25,13,24,19.20
2016,05,25,13,25,19.10
2016,05,25,13,26,19.10
2016,05,25,13,27,19.10
2016,05,25,13,28,19.10
2016,05,25,13,29,19.20
2016,05,25,13,30,19.20
2016,05,25,13,31,19.30
2016,05,25,13,32,19.30
2016,05,25,13,33,19.30
2016,05,25,13,34,19.30
2016,05,25,13,35,19.20
2016,05,25,13,36,19.20
2016,05,25,13,37,19.20
2016,05,25,13,38,19.30
2016,05,25,13,39,19.30
2016,05,25,13,40,19.40
2016,05,25,13,41,19.40
2016,05,25,13,42,19.40
2016,05,25,13,43,19.40
2016,05,25,13,44,19.50
2016,05,25,13,45,19.50
2016,05,25,13,46,19.50
2016,05,25,13,47,19.50
2016,05,25,13,48,19.50
2016,05,25,13,49,19.50
2016,05,25,13,50,19.50
2016,05,25,13,51,19.50
2016,05,25,13,52,19.50
2016,05,25,13,53,19.40
2016,05,25,13,54,19.40
2016,05,25,13,55,19.40
2016,05,25,13,56,19.40
2016,05,25,13,57,19.40
2016,05,25,13,58,19.40
2016,05,25,13,59,19.40
2016,05,25,14,00,19.50
2016,05,25,14,01,19.50
2016,05,25,14,02,19.50
2016,05,25,14,03,19.50
2016,05,25,14,04,19.60
2016,05,25,14,05,19.50
2016,05,25,14,06,19.50
2016,05,25,14,07,19.40
2016,05,25,14,08,19.40
2016,05,25,14,09,19.40
2016,05,25,14,10,19.40
2016,05,25,14,11,19.50
2016,05,25,14,12,19.50
2016,05,25,14,13,19.50
2016,05,25,14,14,19.60
2016,05,25,14,15,19.70
2016,05,25,14,16,19.70
2016,05,25,14,17,19.70
2016,05,25,14,18,19.70
2016,05,25,14,19,19.70
2016,05,25,14,20,19.70
2016,05,25,14,21,19.80
2016,05,25,14,22,19.90
2016,05,25,14,23,19.90
2016,05,25,14,24,20.00
2016,05,25,14,25,20.00
2016,05,25,14,26,20.10
2016,05,25,14,27,20.10
2016,05,25,14,28,20.00
2016,05,25,14,29,20.00
2016,05,25,14,30,20.00
2016,05,25,14,31,20.00
2016,05,25,14,32,20.00
2016,05,25,14,33,20.00
2016,05,25,14,34,20.00
2016,05,25,14,35,20.00
2016,05,25,14,36,20.10
2016,05,25,14,37,20.10
2016,05,25,14,38,20.10
2016,05,25,14,39,20.10
2016,05,25,14,40,20.10
2016,05,25,14,41,20.10
2016,05,25,14,42,20.10
2016,05,25,14,43,20.20
2016,05,25,14,44,20.20
2016,05,25,14,45,20.20
2016,05,25,14,46,20.30
2016,05,25,14,47,20.30
2016,05,25,14,48,20.30
2016,05,25,14,49,20.30
2016,05,25,14,50,20.20
2016,05,25,14,51,20.20
2016,05,25,14,52,20.20
2016,05,25,14,53,20.10
2016,05,25,14,54,20.10
2016,05,25,14,55,20.00
2016,05,25,14,56,20.00
2016,05,25,14,57,20.10
2016,05,25,14,58,20.10
2016,05,25,14,59,20.10
2016,05,25,15,00,20.00
2016,05,25,15,01,20.00
2016,05,25,15,02,20.00
2016,05,25,15,03,20.00
2016,05,25,15,04,20.00
2016,05,25,15,05,20.00
2016,05,25,15,06,20.00
2016,05,25,15,07,20.00
2016,05,25,15,08,20.00
2016,05,25,15,09,20.00
2016,05,25,15,10,20.00
2016,05,25,15,11,20.00
2016,05,25,15,12,20.10
2016,05,25,15,13,20.10
2016,05,25,15,14,20.10
2016,05,25,15,15,20.10
2016,05,25,15,16,20.20
2016,05,25,15,17,20.20
2016,05,25,15,18,20.30
2016,05,25,15,19,20.30
2016,05,25,15,20,20.30
2016,05,25,15,21,20.30
2016,05,25,15,22,20.30
2016,05,25,15,23,20.30
2016,05,25,15,24,20.20
2016,05,25,15,25,20.20
2016,05,25,15,26,20.20
2016,05,25,15,27,20.20
2016,05,25,15,28,20.20
2016,05,25,15,29,20.10
2016,05,25,15,30,20.10
2016,05,25,15,31,20.10
2016,05,25,15,32,20.20
2016,05,25,15,33,20.20
2016,05,25,15,34,20.20
2016,05,25,15,35,20.30
2016,05,25,15,36,20.40
2016,05,25,15,37,20.50
2016,05,25,15,38,20.50
2016,05,25,15,39,20.60
2016,05,25,15,40,20.70
2016,05,25,15,41,20.80
2016,05,25,15,42,20.80
2016,05,25,15,43,20.80
2016,05,25,15,44,20.70
2016,05,25,15,45,20.70
2016,05,25,15,46,20.70
2016,05,25,15,47,20.60
2016,05,25,15,48,20.60
2016,05,25,15,49,20.60
2016,05,25,15,50,20.50
2016,05,25,15,51,20.50
2016,05,25,15,52,20.50
2016,05,25,15,53,20.40
2016,05,25,15,54,20.40
2016,05,25,15,55,20.40
2016,05,25,15,56,20.40
2016,05,25,15,57,20.30
2016,05,25,15,58,20.30
2016,05,25,15,59,20.40
2016,05,25,16,00,20.40
2016,05,25,16,01,20.40
2016,05,25,16,02,20.40
2016,05,25,16,03,20.40
2016,05,25,16,04,20.40
2016,05,25,16,05,20.30
2016,05,25,16,06,20.20
2016,05,25,16,07,20.10
2016,05,25,16,08,20.00
2016,05,25,16,09,19.90
2016,05,25,16,10,19.90
2016,05,25,16,11,19.80
2016,05,25,16,12,19.70
2016,05,25,16,13,19.70
2016,05,25,16,14,19.60
2016,05,25,16,15,19.60
2016,05,25,16,16,19.60
2016,05,25,16,17,19.60
2016,05,25,16,18,19.60
2016,05,25,16,19,19.50
2016,05,25,16,20,19.50
2016,05,25,16,21,19.40
2016,05,25,16,22,19.40
2016,05,25,16,23,19.40
2016,05,25,16,24,19.40
2016,05,25,16,25,19.30
2016,05,25,16,26,19.30
2016,05,25,16,27,19.30
2016,05,25,16,28,19.30
2016,05,25,16,29,19.40
2016,05,25,16,30,19.40
2016,05,25,16,31,19.40
2016,05,25,16,32,19.40
2016,05,25,16,33,19.50
2016,05,25,16,34,19.50
2016,05,25,16,35,19.50
2016,05,25,16,36,19.60
2016,05,25,16,37,19.50
2016,05,25,16,38,19.60
2016,05,25,16,39,19.60
2016,05,25,16,40,19.70
2016,05,25,16,41,19.70
2016,05,25,16,42,19.80
2016,05,25,16,43,19.90
2016,05,25,16,44,20.00
2016,05,25,16,45,20.10
2016,05,25,16,46,20.20
2016,05,25,16,47,20.20
2016,05,25,16,48,20.20
2016,05,25,16,49,20.20
2016,05,25,16,50,20.20
2016,05,25,16,51,20.20
2016,05,25,16,52,20.10
2016,05,25,16,53,20.10
2016,05,25,16,54,20.00
2016,05,25,16,55,20.00
2016,05,25,16,56,19.90
2016,05,25,16,57,19.80
2016,05,25,16,58,19.80
2016,05,25,16,59,19.70
2016,05,25,17,00,19.70
2016,05,25,17,01,19.60
2016,05,25,17,02,19.50
2016,05,25,17,03,19.50
2016,05,25,17,04,19.40
2016,05,25,17,05,19.40
2016,05,25,17,06,19.40
2016,05,25,17,07,19.40
2016,05,25,17,08,19.40
2016,05,25,17,09,19.40
2016,05,25,17,10,19.40
2016,05,25,17,11,19.40
2016,05,25,17,12,19.40
2016,05,25,17,13,19.40
2016,05,25,17,14,19.50
2016,05,25,17,15,19.50
2016,05,25,17,16,19.50
2016,05,25,17,17,19.60
2016,05,25,17,18,19.60
2016,05,25,17,19,19.60